STARLINK-30521, 57966

Orbit data source: Space-Track

STARLINK-30521, 57966 is a payload satellite owned by SpaceX/Seattle (US) in LEO that was launched on Sat, 30 Sep 2023 UTC via an FALCON 9 launch vehicle from the Air Force Eastern Test Range (AFETR). Payload-class satellites include a variety of spacecraft equipped with specific instruments for various scientific and technological missions. These include communications satellites like Starlink; space stations such as the ISS; scientific satellites like the Hubble; Earth observation satellites from companies like Planet Labs, Umbra, and HawkEye 360; GPS; miniature CubeSats for education and research; and military/defense satellites.

Loading next visibility...
Identifier
57966, 2023-151C
Orbit
LEO
Country
Flag of USUS
Related business
Manufacturer
SpaceX/Seattle
Mission
Operational Commercial Communications
Bus & Motor
STARLINK V2M, Unknown motor
Mass
730 kg wet, ~700 kg dry
Launch date (UTC)
2023-09-30 (3 years ago)
Launch vehicle
FALCON 9
Launch site
Air Force Eastern Test Range (AFETR)
Object type
Payload
Rocket body
Debris
Shape & HBR
Box + 2 Pan, 17.7 m
Radar Cross Section
33.884 m², Large (>1 m²)

Expand to show TLE details & history
Last TLE update: 1 day ago

TLE from 1 day ago
0 STARLINK-30521
1 57966U 23151C   26174.84237886 -.00001027  00000-0 -27793-4 0  9995
2 57966  43.0042  96.2939 0001386 259.7999 100.2697 15.27589947152004
Epoch: 2026-06-23T20:13Z
TLE epoch observation values (Epoch: 2026-06-23T20:13:01.533Z)
Latitude
0.00002°
Longitude
-118.97061°
Altitude
482.965 km
Speed
7.626 km/s
True Right ascension
06h 25m 10s
True Declination
0° 00' 00"
Sunlit
Object was in daylight at epoch
Visualization orbit readout
Latitude
Unknown
Longitude
Unknown
Altitude
Unknown
Speed
Unknown
Apparent Right ascension
Unknown
Apparent Declination
Unknown
Sunlit
N/A
Visualization observer readout
Local Sidereal Time
13:39:41
Azimuth
Unknown
Elevation
Unknown
Doppler factor
Unknown
Orbital elements
Apogee altitude
485.915 km
Perigee altitude
484.013 km
Semi-major axis
6,863.101 km
Eccentricity
0.00014
Inclination
43.0042°
RAAN
96.2939°
Arg. of periapsis
259.7999°
True anomaly
100.28533°
Mean anomaly
100.2697°
Eccentric anomaly
100.27751°
Mean motion
3.81736 °/min
Orbital period
94.31 mins
BSTAR
-0.000027793
Loading maneuver chart data...
Computing Atmospheric mass density...
Loading historical data...
Loading historical data...
Loading historical data...
Loading historical data...
Loading historical data...
Loading historical data...
Loading historical data...

Documentation

Showing up to 5 results
|